sat.trackr.live / text

‹ back to catalog

STARLINK-2423

NORAD 47833 · 2021-018AY

PAYLOAD ACTIVE UNKNOWN

§ Identity

Operator
Country
US
Launch date
2021-03-11
Launch site
AFETR
Launch vehicle
Mass (kg)
RCS (m²)

Purposes: comms

External: N2YO · Heavens-Above · Gunter

§ Orbital elements

Epoch: 2026-05-25T00:55:36.901056Z

Period
94.01 min
Inclination
53.1576°
Eccentricity
0.0001532
Mean motion
15.31705307 rev/d
Perigee alt
469.7 km
Apogee alt
471.8 km
Semi-major
6,848.9 km
B*
2.8571e-5
RAAN
261.2104°
Arg perigee
77.3066°
Mean anomaly
282.8106°
Rev number
28,827

§ Raw data

STARLINK-24231 47833U 21018AY  26145.03862154  .00000521  00000+0  28571-4 0  99982 47833  53.1576 261.2104 0001532  77.3066 282.8106 15.31705307288276

JSON: /api/v1/satellites/47833 · /tle

For live sub-satellite position, see the globe view (requires WebGL).

§ Visibility from observer

Set your observer location to see the next 7 days of passes ≥ 10°. The values pass through the URL so the page stays shareable.

No JS? Fill the form by hand. The geolocation button needs JavaScript.